RH
15 15 15 15 15 14 13 12 10 10 9 9 10 10 12 13 13 14 15 16 17 18 19 19 20 21 21 21 21 21 20 20 21 21 21 22 23 25 26 28 29 31 32 33 34 34 34 34 33 32 31 30 29 29 29 29 29 29 30 31 31 32 32 33 34 35 37 38 40 42 44 46 48 51 55 59 63 68 71 74 75 74 73 71 68 65
12 11 11 11 11 11 10 10 10 10 10 10 11 12 13 14 15 15 16 16 17 18 18 18 19 21 22 22 22 22 23 23 23 24 25 25 26 27 28 28 29 29 29 29 30 30 31 31 31 32 32 32 33 33 34 34 35 35 35 35 36 36 38 40 42 44 46 49 52 55 59 62 65 69 73 78 81 85 87 88 89 88 86 84 82 78
14 12 12 11 11 11 10 10 11 11 11 12 13 14 15 15 16 16 16 17 19 19 18 18 20 21 21 21 22 22 22 23 23 23 23 23 23 23 24 24 25 26 27 29 30 31 32 33 34 35 36 36 37 38 38 38 38 38 38 39 40 42 45 48 51 54 58 63 68 73 78 82 85 88 91 94 96 97 98 98 98 98 97 96 94 90
16 14 13 12 12 11 11 12 12 12 12 13 13 13 14 14 14 14 14 15 16 16 16 16 17 17 17 17 17 18 18 18 18 18 19 19 20 21 23 25 27 29 31 32 34 34 35 36 37 37 37 38 38 38 39 40 41 41 43 46 50 53 57 61 66 71 77 82 86 89 92 95 97 98 99 100 100 100 100 100 100 100 100 100 99 96
13 12 12 11 11 11 12 12 12 12 12 12 12 12 11 12 12 12 12 12 12 13 12 13 14 13 13 14 14 15 16 17 19 20 22 23 24 26 28 30 31 32 34 35 36 37 38 39 40 40 41 42 43 44 45 46 48 50 53 57 61 65 70 75 80 86 90 94 96 97 98 99 100 100 100 100 100 100 100 100 100 100 100 100 100 100
11 12 12 12 12 12 13 13 13 13 13 13 13 13 13 13 13 13 13 14 14 14 14 16 17 15 15 17 19 20 21 23 24 25 27 29 30 32 33 34 35 36 38 39 40 42 43 45 47 48 50 52 54 55 57 59 62 64 68 71 74 77 81 84 87 90 94 96 99 100 101 101 100 100 100 100 100 100 100 100 100 100 100 100 100 100
13 13 13 14 14 14 14 15 15 15 16 17 17 17 18 18 19 19 20 21 21 20 21 21 23 22 21 22 24 25 26 27 29 31 33 35 36 38 40 41 42 44 46 48 49 51 53 55 58 60 63 66 70 73 76 78 80 81 82 83 85 87 89 91 94 96 98 100 100 101 101 101 101 100 100 100 100 100 100 100 100 100 100 100 100 99
14 15 15 16 16 17 18 19 20 20 21 22 23 23 24 24 25 25 26 27 27 27 26 25 28 31 28 26 28 30 32 32 34 38 40 42 44 47 50 52 54 56 57 58 60 60 61 62 64 66 68 71 74 77 80 83 84 85 86 87 90 92 95 97 99 100 101 101 101 100 100 100 100 100 99 100 100 99 99 99 100 100 99 100 100 100
17 19 20 20 21 22 22 22 22 22 23 25 26 28 30 31 31 32 32 32 33 33 31 31 35 38 34 31 33 35 37 40 43 47 50 53 56 58 58 58 58 57 56 55 54 55 57 59 62 66 69 73 77 80 84 88 91 93 94 95 97 98 99 99 100 100 100 100 100 100 100 100 100 100 100 100 100 100 100 100 100 100 100 100 100 100
22 23 23 21 21 20 19 19 18 18 19 20 22 25 28 30 32 34 35 36 38 36 35 38 42 45 42 35 37 42 44 49 53 54 55 54 53 52 50 51 51 52 54 57 62 66 71 76 81 85 88 91 93 95 97 98 99 100 100 100 100 100 100 100 100 100 100 100 99 99 98 99 100 100 100 99 99 99 99 99 99 99 100 100 100 101
22 20 18 17 16 17 17 17 17 17 17 17 19 21 22 25 28 29 31 35 37 34 35 42 44 47 46 35 36 43 43 44 46 44 45 45 46 49 54 61 68 74 80 85 89 92 95 97 98 99 100 100 100 100 101 100 100 100 100 100 100 99 99 99 99 99 99 99 98 99 99 101 102 102 102 102 101 102 101 101 101 101 100 99 98 96
17 16 16 16 17 18 17 17 16 16 16 17 18 19 19 21 22 22 24 28 30 28 30 34 35 39 38 29 30 36 37 39 44 47 53 59 66 75 83 89 94 97 99 100 100 100 100 100 100 100 100 100 100 99 99 99 99 100 100 100 100 101 101 101 101 101 101 101 100 100 99 98 97 96 94 91 89 87 85 83 82 80 78 75 73 70
16 17 17 17 17 16 16 16 16 16 17 17 18 20 21 22 22 22 24 25 27 28 29 32 35 36 36 36 40 46 51 59 66 73 80 86 92 97 99 101 101 101 100 100 100 100 99 99 99 100 100 100 100 101 101 101 101 100 99 98 96 95 94 92 90 88 85 83 81 79 77 74 72 70 68 66 64 63 61 60 59 57 57 56 56 55
17 17 17 17 17 17 18 19 21 22 23 24 26 28 30 32 32 30 32 34 37 40 40 44 50 53 57 65 73 77 80 86 91 95 97 99 100 100 100 100 99 100 100 100 100 100 101 101 101 100 99 98 95 93 90 86 83 80 76 74 72 71 70 70 68 67 66 65 64 63 62 61 60 60 59 57 56 55 55 54 53 52 51 50 49 48
17 18 19 20 20 21 23 24 27 28 30 33 36 39 43 48 51 49 51 55 59 63 64 69 78 83 88 95 98 98 98 98 99 100 100 100 100 100 101 101 101 100 100 99 97 95 92 90 86 83 79 75 72 70 68 67 66 66 66 66 66 66 65 64 64 63 62 60 60 59 58 57 56 55 53 52 51 50 49 48 47 46 45 44 43 43
21 25 26 27 28 31 36 40 43 47 51 56 60 65 72 80 84 85 86 88 90 91 91 94 99 99 100 101 100 100 100 100 101 101 100 100 99 97 94 91 88 85 81 77 73 70 69 68 67 67 68 68 69 70 70 71 70 69 68 66 64 62 60 58 57 56 55 54 54 53 52 52 51 50 49 49 48 48 47 46 45 45 44 43 43 42
34 44 48 46 50 56 61 65 69 74 81 84 88 94 99 101 102 101 100 100 100 100 100 100 101 100 101 101 100 100 100 97 95 91 88 83 78 73 70 67 66 65 64 64 66 68 71 73 74 75 75 74 73 71 68 66 64 61 60 59 58 57 56 56 55 55 54 54 53 53 52 52 51 50 49 48 47 46 45 44 42 41 40 39 38 37
55 67 72 68 72 78 80 82 84 87 92 95 98 102 103 102 102 102 102 101 101 101 99 99 100 98 95 92 88 84 80 75 71 69 67 65 65 65 67 69 72 75 77 78 79 79 78 76 74 71 69 67 65 63 62 61 60 60 60 59 59 58 57 57 56 55 55 53 51 50 48 46 44 42 40 38 36 35 33 31 30 29 28 27 26 25
66 74 81 79 79 85 87 88 90 92 94 96 98 98 97 96 94 94 93 90 87 86 83 82 81 77 73 71 69 68 67 68 70 72 75 77 79 82 83 83 82 81 80 77 74 71 69 67 66 64 64 64 63 64 63 63 62 62 61 60 59 57 56 54 51 48 45 42 39 36 33 31 29 27 26 24 23 22 21 20 19 19 18 17 17 17
71 73 79 80 79 82 83 84 86 87 86 86 86 84 83 83 80 78 76 73 72 72 72 72 71 70 72 75 77 79 81 84 85 86 86 84 83 80 77 74 72 70 68 67 66 65 65 65 66 66 66 66 66 65 64 63 61 60 59 56 53 49 44 39 35 32 30 28 27 26 25 24 23 22 21 20 19 18 17 17 16 16 16 15 15 15
72 72 75 78 79 79 80 80 81 81 81 81 81 80 79 79 80 80 80 81 83 85 87 87 84 83 85 87 87 86 84 82 80 77 74 71 69 66 65 65 65 66 66 67 68 68 69 69 69 68 67 65 64 62 60 58 56 53 48 43 37 33 30 28 28 28 28 28 28 27 26 24 22 21 19 18 17 17 17 17 17 16 16 16 16 15
76 75 74 74 73 71 70 71 70 69 69 68 67 68 70 74 80 82 82 85 88 88 88 86 82 79 77 76 74 71 69 67 65 64 64 64 65 65 67 69 70 72 72 73 73 72 70 69 67 65 63 62 60 57 54 49 44 39 34 31 30 30 31 32 33 33 32 30 28 26 24 22 20 19 18 18 18 19 19 19 19 19 18 18 17 17
54 49 45 40 37 35 34 34 33 31 32 33 35 41 48 55 63 68 70 71 72 71 69 67 66 63 62 62 62 62 63 64 66 68 69 71 72 73 75 76 76 75 74 73 71 69 67 66 64 62 60 56 52 47 42 37 34 33 33 34 36 37 37 37 36 34 31 28 26 23 21 20 19 20 21 22 22 22 22 22 21 21 20 19 18 18
17 15 13 12 11 11 12 13 15 16 18 20 24 29 33 37 43 51 57 58 57 58 59 60 62 62 62 64 66 69 71 72 74 75 75 75 75 75 75 74 72 71 70 69 68 67 65 63 60 56 51 47 43 40 38 38 39 40 41 42 42 41 39 37 34 31 28 25 24 23 23 23 24 25 25 25 26 26 26 25 24 23 21 21 20 19
8 8 8 9 9 9 10 12 15 19 23 27 30 32 34 36 40 46 51 52 54 59 63 67 70 71 71 72 72 74 75 75 74 74 73 73 72 72 72 71 70 71 70 69 68 65 61 56 52 49 46 45 44 44 45 46 47 47 46 44 42 39 36 33 31 28 27 27 27 27 28 29 29 29 28 29 29 28 27 26 24 23 22 20 19 18
9 10 10 11 11 12 13 13 15 18 23 28 32 36 39 42 45 48 50 53 59 64 68 73 76 73 71 71 71 71 72 72 72 71 71 71 71 73 74 73 73 72 70 68 64 60 56 53 51 51 51 51 52 53 53 52 50 47 44 41 38 36 33 32 31 30 30 30 31 31 32 32 32 32 32 31 30 28 27 25 23 21 20 18 17 16
11 12 12 13 14 15 15 16 17 19 22 24 28 33 38 43 46 50 53 57 61 63 65 68 68 66 66 67 67 67 68 69 70 71 72 74 75 76 76 74 73 70 67 65 62 60 59 58 58 59 58 58 56 54 51 48 45 42 40 38 37 36 35 34 33 33 33 33 34 35 36 35 35 34 32 29 27 25 23 21 19 18 16 15 14 13
13 13 14 15 16 16 17 18 19 20 21 24 27 32 36 40 43 47 52 56 59 59 60 60 60 62 64 64 64 65 66 68 70 73 74 75 76 75 73 71 69 68 67 66 65 65 64 63 61 59 55 52 49 47 45 43 42 41 40 40 39 38 38 37 37 37 38 39 39 38 37 34 32 29 27 25 22 21 19 17 16 15 14 13 13 12
14 15 15 16 17 18 18 18 20 20 21 24 28 32 35 38 41 45 49 52 55 57 58 57 58 61 62 61 62 63 65 67 70 73 73 73 73 72 72 71 71 71 70 68 66 63 59 55 51 48 46 45 45 44 44 43 43 43 43 42 41 41 41 41 41 41 41 39 37 34 32 29 26 24 22 20 18 16 15 14 13 13 13 13 12 12
15 16 17 17 18 19 19 20 20 21 22 25 27 30 33 36 40 42 44 46 50 55 55 52 52 54 56 57 58 60 63 67 71 72 73 73 73 74 74 73 70 66 61 56 51 47 45 44 44 45 46 46 46 46 46 46 46 46 45 44 44 43 43 42 41 39 36 34 31 29 26 24 21 19 17 16 15 14 14 14 14 14 14 14 14 15
17 18 18 19 20 20 20 21 21 22 24 25 26 28 31 34 38 40 42 44 44 44 43 43 44 46 47 48 52 57 62 66 69 71 72 73 72 70 66 60 52 47 42 40 39 41 43 46 48 49 50 50 50 51 50 50 49 48 47 46 45 43 41 39 37 35 33 30 27 24 21 18 16 15 15 14 14 15 15 16 16 16 16 16 15 16
18 19 20 21 22 22 23 23 23 24 25 25 27 29 30 33 36 38 40 41 38 33 32 35 36 37 37 39 44 51 56 60 65 67 67 66 62 55 48 42 38 38 39 41 45 49 52 54 55 55 56 57 56 55 53 51 50 50 48 45 42 40 38 37 35 32 29 25 22 18 16 15 15 15 16 16 17 17 17 18 18 17 17 17 18 18
20 21 22 23 24 25 26 26 26 26 25 25 27 29 30 31 33 34 35 36 33 30 30 31 30 30 32 34 39 45 51 59 65 66 61 56 50 43 40 39 40 43 47 50 54 58 60 62 62 62 61 59 57 55 54 52 50 48 45 42 40 39 37 35 32 28 24 20 17 16 15 16 17 18 19 19 19 19 19 19 19 18 19 19 19 17
21 23 25 26 27 29 29 29 28 27 27 27 28 29 30 31 31 29 30 31 29 27 28 28 26 26 28 31 34 40 49 58 63 60 53 48 44 42 42 44 47 49 52 56 60 64 67 67 66 63 60 57 56 55 53 51 48 46 44 42 41 39 36 32 27 22 19 16 16 17 18 20 20 20 21 21 21 21 20 20 21 21 21 19 18 24
23 25 27 29 31 32 32 32 30 29 29 30 29 29 30 31 29 28 28 28 25 23 22 21 20 21 23 26 31 38 48 55 58 55 51 48 46 46 48 49 51 52 55 61 67 71 71 69 64 61 58 57 55 53 50 48 47 46 46 44 41 37 33 28 22 18 16 17 19 21 21 21 22 22 22 22 22 22 22 22 23 21 19 23 37 56
24 26 30 32 34 35 36 36 34 32 31 30 29 31 32 31 29 27 26 24 22 20 18 17 17 19 21 25 30 37 43 47 51 54 54 53 52 52 53 53 54 57 60 65 71 74 72 68 64 61 58 55 52 50 49 49 49 49 48 44 40 35 28 22 18 17 18 20 22 23 23 23 23 23 23 23 23 24 24 23 22 22 30 49 70 85
26 29 33 36 37 38 39 38 36 34 33 32 31 33 33 32 30 28 25 23 21 19 18 17 17 18 21 24 28 32 36 42 50 53 54 57 59 58 59 61 62 63 64 67 72 75 74 71 67 62 57 54 53 52 51 52 53 52 48 43 37 30 23 19 18 20 22 23 24 25 25 25 25 24 24 25 25 25 23 22 26 40 58 74 86 93
27 31 35 39 41 42 41 40 38 36 35 34 34 35 35 33 31 29 26 24 22 20 18 17 17 19 22 25 29 32 36 44 53 56 56 60 65 66 68 70 70 69 69 70 74 79 79 76 71 65 59 57 56 56 56 58 57 53 47 40 32 25 20 19 21 23 25 25 26 26 26 27 26 26 26 27 25 24 25 33 50 68 79 84 90 99
27 31 37 42 44 44 45 44 42 40 37 36 36 36 36 34 31 29 27 25 23 21 19 18 18 20 24 27 32 36 39 44 53 58 60 63 69 72 75 77 77 75 75 76 78 81 81 78 74 68 62 60 60 61 62 62 58 51 44 35 27 21 21 22 25 26 27 27 28 28 29 29 28 28 28 25 25 30 42 58 73 80 82 89 98 104
28 31 35 40 44 46 47 48 46 43 40 39 38 38 37 35 32 29 27 26 25 23 20 19 19 21 25 29 33 37 40 42 47 53 57 62 68 73 76 79 79 78 78 79 79 81 82 81 76 69 63 62 63 64 65 62 56 47 39 30 23 21 23 26 27 28 28 29 31 31 31 31 30 30 27 24 32 51 69 79 81 80 85 97 105 104
26 29 32 37 42 47 50 50 48 46 43 41 40 40 39 36 32 29 28 28 27 25 22 21 20 21 25 30 32 35 38 39 41 45 49 54 61 67 71 75 77 77 77 78 78 79 82 81 75 68 64 65 67 67 65 59 51 43 34 26 22 23 26 28 29 30 31 32 33 34 34 34 32 28 27 34 52 73 86 85 79 80 89 100 103 101
25 28 32 36 42 49 53 52 50 48 45 43 41 41 41 38 33 31 30 28 28 27 24 22 21 21 23 27 31 33 35 36 37 39 41 45 51 58 64 69 72 75 76 77 77 79 80 78 73 69 69 70 71 68 62 54 47 39 30 23 23 26 28 30 30 31 33 35 36 36 36 35 30 28 38 56 74 87 93 90 85 86 92 96 98 98
27 29 32 36 42 51 56 56 54 51 48 45 43 42 42 40 36 33 31 29 29 29 27 25 23 21 21 24 28 32 34 36 37 36 37 39 44 53 60 65 69 72 75 77 79 81 81 79 76 76 75 75 73 66 58 52 44 35 26 23 25 28 30 32 32 33 36 38 38 39 38 33 30 39 58 76 87 92 93 92 91 90 90 92 95 98
29 31 34 38 44 55 61 61 60 56 50 47 45 44 44 42 38 35 32 30 30 31 31 29 26 24 22 22 24 28 33 37 40 39 38 38 41 48 57 63 67 72 77 81 84 85 85 84 83 83 81 77 71 63 57 50 41 31 25 25 28 31 33 34 34 36 40 40 41 42 37 31 39 60 79 88 95 98 95 92 92 89 86 88 93 98
30 33 36 39 45 57 64 64 63 59 53 49 47 45 45 44 41 37 33 32 32 33 33 32 30 27 25 22 22 24 28 34 41 44 44 43 43 46 52 58 63 69 76 81 83 86 89 89 88 86 82 76 69 63 57 48 37 28 26 27 30 33 35 36 36 39 42 42 44 43 35 35 56 82 94 96 99 101 98 93 89 84 82 84 90 98
32 35 37 38 41 50 60 64 64 62 57 51 48 47 47 47 44 41 36 34 34 34 35 34 32 31 28 25 23 22 24 28 35 43 48 51 50 50 52 56 60 66 72 77 81 89 93 92 89 85 81 76 70 63 55 45 34 28 27 29 32 34 37 38 37 41 44 44 46 44 35 42 71 96 103 103 103 102 100 94 85 79 77 80 86 97
33 36 39 39 39 45 56 65 68 65 60 54 50 48 48 49 48 45 41 38 36 36 36 35 34 32 31 28 25 24 23 24 29 36 45 54 58 59 59 61 63 68 74 79 86 94 96 92 88 85 81 76 69 62 54 43 32 27 27 30 33 36 39 40 39 42 46 46 48 45 37 46 77 100 104 105 105 103 101 95 83 75 72 73 81 94
35 38 40 41 40 43 53 63 69 69 64 58 53 50 49 50 51 50 46 42 39 37 38 37 36 34 33 31 29 26 24 23 25 28 35 48 61 66 68 70 72 76 82 89 95 99 97 91 89 85 81 76 69 62 53 41 31 28 29 32 35 37 41 42 40 43 47 47 49 48 40 50 80 100 101 104 106 104 101 94 84 76 69 65 72 86
37 41 42 42 41 42 49 59 67 70 67 62 56 52 51 52 53 53 52 48 43 40 40 40 39 37 35 33 31 29 27 25 24 25 27 37 54 67 74 79 82 86 92 97 100 101 96 91 89 86 81 76 69 62 52 40 31 29 30 34 37 39 42 44 42 44 48 49 51 50 43 51 80 99 99 99 105 105 102 97 89 82 76 68 68 79
40 44 45 44 43 43 49 59 68 71 69 66 61 56 53 53 55 56 55 52 47 43 42 42 41 40 38 36 34 32 31 28 26 26 25 29 41 58 73 83 90 94 97 99 100 101 97 92 89 87 84 78 70 63 52 39 31 30 32 35 39 39 42 45 43 43 48 50 52 52 46 48 73 96 97 94 100 104 105 102 96 87 80 73 69 75
43 47 49 47 46 45 50 60 69 73 73 70 66 60 56 55 56 58 59 57 52 47 44 43 44 43 41 39 38 36 35 32 30 30 28 28 34 46 64 82 93 98 99 98 98 99 97 93 91 90 86 79 72 64 53 39 31 32 33 36 40 40 41 45 45 43 46 50 52 53 48 46 63 88 96 92 96 103 104 104 103 97 85 76 70 71
Wind_Speed
29 30 31 32 33 34 34 35 35 36 36 37 38 38 39 40 40 40 41 41 42 43 44 44 44 45 45 45 45 46 46 46 47 47 47 47 48 49 49 50 50 51 51 52 52 53 53 53 54 54 55 56 57 57 58 59 60 61 62 63 63 64 64 65 65 65 65 65 65 65 66 66 66 66 66 67 67 68 68 69 69 70 71 71 72 73
29 30 31 32 33 34 34 35 35 36 36 37 37 38 39 39 40 40 41 41 42 43 44 44 44 45 44 44 45 45 46 46 47 47 47 48 48 49 49 49 49 49 50 50 50 51 51 52 53 54 55 56 57 59 59 60 61 62 63 63 64 64 64 64 64 64 64 65 65 65 65 65 65 65 66 66 67 68 68 69 70 71 71 72 73 74
29 30 31 31 32 33 34 34 35 36 36 37 37 38 39 39 40 41 41 42 42 43 44 44 44 44 44 45 45 46 46 46 47 47 47 47 47 47 47 47 47 47 48 48 49 50 52 53 54 56 57 58 59 60 60 61 61 62 62 62 62 63 63 63 63 63 63 64 64 64 64 64 64 65 65 66 67 68 69 70 70 71 72 73 74 75
30 30 31 31 32 33 33 34 35 35 36 37 37 38 39 40 41 42 42 42 43 44 44 44 45 45 45 45 45 45 45 45 45 46 46 46 46 46 46 47 48 48 49 51 52 53 54 55 56 57 57 58 59 59 59 59 60 60 60 60 60 61 61 61 62 62 62 62 62 62 63 63 64 65 65 67 68 68 69 70 71 71 72 73 74 76
31 31 31 32 33 33 34 35 35 36 37 37 38 39 40 40 41 42 42 43 44 44 44 44 45 47 46 45 45 44 44 44 44 45 45 46 46 47 48 49 50 52 53 53 54 54 55 55 55 55 56 56 57 57 57 57 57 57 58 58 59 59 60 60 60 61 61 61 62 62 63 63 64 65 66 67 68 69 69 70 70 71 72 72 73 75
31 32 33 33 34 34 35 36 36 37 38 38 39 40 41 41 42 42 43 43 44 45 44 44 46 48 47 45 45 44 45 45 46 46 47 48 49 50 51 52 52 53 54 54 54 54 54 54 54 54 55 55 55 55 56 56 56 57 57 58 59 60 60 61 61 62 63 63 64 64 64 64 65 65 66 67 68 69 70 71 72 72 73 75 76 78
33 33 34 35 36 36 37 38 38 39 39 40 40 41 41 42 42 43 43 43 45 45 44 45 47 49 48 47 46 46 46 47 48 49 49 50 50 51 51 51 51 52 52 52 53 53 53 54 54 54 54 54 54 54 55 55 56 57 58 58 59 60 61 62 63 63 64 65 65 65 65 65 66 66 67 69 70 71 72 73 74 75 77 78 80 81
34 35 36 37 38 38 39 40 41 41 42 42 43 43 43 43 43 43 43 44 45 45 46 46 46 48 50 49 48 48 49 50 50 49 50 50 50 49 49 50 50 50 51 51 52 52 53 53 53 53 53 53 53 54 54 55 56 57 58 58 59 60 61 62 62 63 63 64 64 64 64 65 66 67 69 70 72 74 75 76 77 78 79 80 80 81
37 38 39 40 41 41 42 43 43 44 44 44 44 44 44 44 45 44 44 45 46 47 48 47 46 48 52 52 50 51 50 49 49 48 48 48 47 48 48 49 49 49 50 50 50 50 51 51 51 52 52 53 53 54 54 55 56 57 58 59 59 60 60 61 61 62 62 63 63 64 65 67 68 70 72 73 74 76 77 78 79 80 80 81 82 82
40 41 42 42 42 42 42 42 41 41 41 42 42 43 43 44 44 45 45 46 46 48 48 47 45 47 51 52 50 49 48 47 46 46 46 46 46 47 47 47 47 47 48 48 48 49 50 50 51 52 52 53 54 54 55 56 56 57 58 58 59 60 60 61 61 62 63 65 66 68 69 71 72 73 74 75 76 78 79 79 80 81 82 83 84 85
43 43 42 41 39 38 37 37 37 37 37 38 38 39 39 40 41 42 43 43 44 46 45 43 43 44 47 50 47 45 45 44 44 45 45 45 45 45 45 46 46 46 47 48 49 49 50 50 51 51 52 53 54 54 55 56 56 57 58 58 59 60 62 63 64 66 67 69 70 71 72 73 74 75 76 77 79 80 81 82 84 85 86 87 87 88
40 38 37 36 35 34 35 35 35 35 35 36 36 36 37 37 38 39 39 39 40 41 40 40 41 41 44 46 44 43 43 43 43 44 44 44 44 45 45 46 47 47 48 48 48 48 49 49 50 51 52 52 53 54 55 56 57 58 59 60 61 62 64 65 66 68 69 70 71 72 73 74 76 77 78 80 81 82 83 84 86 87 88 89 89 90
33 32 32 32 32 33 33 33 33 34 34 34 34 35 35 36 37 37 37 37 38 38 38 39 39 41 42 43 42 42 43 43 43 44 44 45 45 46 46 46 46 46 46 46 47 47 48 49 50 51 52 53 54 55 56 57 58 59 60 61 62 63 64 65 67 68 69 71 72 73 75 76 78 79 80 81 83 84 85 86 87 88 89 90 91 92
29 29 29 30 30 31 31 31 31 31 32 32 33 33 34 35 37 38 38 38 38 39 40 40 40 41 42 41 42 42 43 43 44 44 44 45 44 44 44 44 44 45 45 46 46 47 49 50 51 52 53 54 55 55 56 57 58 59 61 62 63 64 65 67 68 70 71 73 74 76 77 78 80 81 82 83 85 86 87 88 89 90 91 92 93 94
30 29 29 29 30 31 31 31 31 32 32 33 33 34 35 35 37 39 39 40 40 41 41 41 41 42 41 41 41 41 41 42 42 41 41 41 41 42 42 43 44 45 46 47 48 49 50 51 52 53 54 55 56 56 57 59 60 62 63 64 65 67 68 69 71 72 74 75 76 78 79 81 82 83 84 86 87 88 89 90 92 93 94 95 95 96
30 30 30 31 32 32 32 32 32 33 33 34 34 35 35 35 37 38 39 40 40 41 41 40 39 39 39 39 38 38 38 38 39 39 40 41 42 42 43 44 45 46 47 48 49 50 51 52 53 54 56 57 58 59 60 62 63 64 65 67 68 70 71 72 73 75 76 78 79 81 82 83 85 86 87 89 90 91 93 94 95 96 97 98 99 100
30 30 31 32 32 32 32 33 33 33 33 34 34 34 35 35 36 37 37 37 37 38 38 37 37 36 36 37 37 37 37 38 39 40 41 42 43 43 44 45 46 48 49 50 51 52 53 54 55 57 58 59 60 61 62 64 65 67 68 69 71 72 74 75 77 78 80 81 82 84 85 86 87 89 90 91 92 94 95 96 97 98 100 101 102 103
30 29 30 31 31 31 32 32 33 33 33 33 34 34 34 34 34 34 35 35 35 36 37 36 36 35 36 37 37 37 38 39 40 41 42 43 44 45 46 47 48 49 51 52 53 54 55 56 57 58 60 61 62 64 65 66 68 70 71 72 74 75 76 78 79 80 82 83 84 86 87 88 89 90 92 93 94 96 97 98 100 101 102 103 104 105
29 29 30 31 31 31 31 32 32 32 33 33 33 33 33 33 33 33 33 34 35 36 36 36 36 36 36 37 37 38 39 40 42 42 43 44 45 46 47 48 50 51 52 53 54 56 57 58 60 61 62 64 65 66 68 69 70 72 73 75 76 77 78 80 81 82 83 84 86 87 88 90 91 92 94 95 97 98 100 101 102 103 104 105 106 107
29 29 30 31 31 31 31 31 31 31 31 32 32 32 32 33 33 33 33 34 34 35 37 37 37 37 38 38 39 40 41 42 43 44 44 45 46 47 48 49 51 52 54 55 57 58 59 61 62 64 65 66 67 68 70 71 72 73 75 76 77 78 79 80 82 83 85 86 88 89 90 92 93 95 96 98 99 100 101 102 102 103 103 103 103 103
29 29 29 29 30 30 30 30 30 31 31 31 31 31 31 32 32 32 33 33 34 35 36 37 38 38 39 39 40 41 42 42 43 44 45 46 48 49 50 52 54 55 56 58 59 60 62 63 64 66 67 68 69 70 71 72 73 74 76 77 78 79 81 82 83 85 87 88 90 91 93 94 95 96 97 97 97 97 97 97 96 96 96 96 96 97
29 29 29 29 30 31 31 31 31 31 31 32 32 32 32 33 33 33 33 33 33 34 36 37 38 38 39 40 41 41 42 43 45 46 47 49 50 52 53 55 56 57 58 60 61 62 63 64 66 67 68 69 70 71 72 73 75 76 77 78 80 81 83 84 85 87 89 90 91 92 93 94 94 93 93 92 91 90 90 90 90 91 91 92 93 94
29 29 30 30 31 32 32 32 32 33 33 34 34 34 34 34 34 34 34 34 34 35 36 37 39 39 39 40 41 43 44 45 47 48 50 51 53 54 55 56 57 58 59 60 62 63 64 66 67 68 69 70 71 72 73 74 76 77 79 80 81 83 84 86 87 88 89 90 91 91 90 89 88 87 86 86 86 86 87 88 89 91 92 93 94 95
28 29 29 30 31 31 31 32 33 34 35 35 36 36 36 36 36 35 35 36 37 37 38 39 40 41 41 42 43 45 47 48 49 50 52 53 54 55 56 57 58 59 61 62 63 65 66 67 68 69 70 71 72 73 74 76 77 78 80 81 83 84 85 86 86 87 87 87 86 85 85 84 83 83 83 84 85 87 88 90 91 93 94 96 97 98
30 31 32 32 33 34 34 35 36 37 38 38 38 38 38 38 37 37 38 39 39 39 39 40 41 42 43 44 45 47 48 49 50 51 52 53 54 56 57 59 60 61 62 63 64 66 67 68 69 70 71 72 73 74 75 77 78 79 81 82 82 83 83 83 83 83 82 82 81 82 82 82 83 83 84 86 88 90 91 93 95 96 98 100 101 102
31 32 34 35 36 38 39 40 40 40 41 41 41 40 39 38 38 39 39 40 40 40 40 41 42 44 45 46 46 47 48 50 51 53 54 55 56 58 59 60 61 62 63 64 65 66 68 69 70 71 72 73 74 75 76 78 79 79 80 81 81 80 80 79 79 79 79 79 80 81 82 83 84 85 87 89 91 93 95 97 98 100 101 103 104 104
32 33 35 36 36 37 39 40 41 41 43 43 44 43 41 39 39 39 39 40 40 40 41 42 43 45 46 47 48 49 50 51 53 54 55 57 58 59 60 61 62 63 64 65 66 67 68 70 71 72 73 74 75 76 77 77 77 77 77 76 76 75 75 75 76 77 78 79 80 81 82 84 86 88 90 92 94 96 98 99 100 102 102 103 103 103
33 34 35 35 36 37 38 39 40 42 43 44 44 43 42 40 40 39 39 39 40 41 42 42 43 45 46 47 49 50 51 52 54 55 56 57 57 59 60 61 62 63 64 65 67 68 69 70 72 73 73 74 74 73 73 72 71 71 71 70 70 71 72 74 75 76 77 79 80 82 84 86 88 91 93 95 96 97 98 99 99 99 98 97 97 96
34 34 35 36 37 38 39 40 41 43 44 45 46 45 43 41 40 39 39 39 40 41 42 43 44 45 47 48 49 50 51 53 54 55 56 56 57 59 60 61 62 63 65 66 67 68 69 70 70 70 70 69 68 67 66 66 65 66 67 68 69 71 72 74 75 77 78 81 83 85 87 89 91 93 94 95 95 95 94 93 92 91 90 89 88 87
35 35 37 37 38 39 40 41 43 44 45 47 47 47 46 44 42 41 41 41 41 41 43 44 45 46 47 49 50 52 53 54 54 55 56 57 59 60 61 63 64 65 66 66 67 67 67 67 66 65 64 63 62 62 61 62 63 65 66 68 69 71 72 74 77 79 82 84 86 88 90 91 92 92 92 91 90 88 87 85 84 83 82 81 81 81
37 37 38 38 39 40 41 42 43 45 46 47 49 49 48 47 45 44 43 43 43 43 44 46 48 49 50 52 53 54 55 56 56 57 58 59 61 62 63 63 64 64 64 63 63 63 62 62 61 60 59 59 59 60 61 62 64 65 67 68 69 71 74 77 80 82 85 87 88 90 90 90 89 87 86 84 82 81 80 79 78 78 77 77 76 76
38 38 39 39 40 41 41 42 44 45 46 48 49 49 49 49 47 46 45 45 46 47 49 50 52 53 55 56 56 57 58 58 59 59 60 61 61 62 61 61 61 60 60 60 59 59 58 57 57 56 57 58 59 60 62 63 64 65 66 68 71 74 77 80 83 84 86 88 89 88 87 85 82 80 78 77 76 76 75 75 74 74 74 73 72 71
38 39 40 40 40 41 42 43 44 45 47 48 49 50 50 49 49 47 46 48 49 51 52 53 55 56 57 58 58 59 59 60 60 61 61 61 61 60 60 59 59 58 58 58 57 56 55 55 55 56 57 58 60 61 61 62 63 65 67 71 74 77 80 82 84 85 86 86 85 83 80 77 76 74 74 73 72 72 72 72 71 71 70 68 66 63
39 40 40 40 40 41 42 43 43 45 47 49 50 51 51 50 50 48 47 49 51 53 54 55 57 58 58 59 60 60 60 60 60 61 61 60 60 59 59 58 58 57 57 56 55 54 54 55 56 57 58 59 59 60 60 62 64 67 70 74 77 80 82 83 85 85 84 82 79 76 74 73 72 71 70 70 70 70 70 69 68 67 65 61 56 51
41 41 41 41 41 42 42 43 44 46 48 50 51 52 51 51 50 48 47 49 52 54 55 57 58 59 59 60 60 61 61 61 60 60 60 59 59 58 58 58 57 57 56 55 54 54 54 55 56 56 57 58 59 59 61 63 66 70 73 76 79 81 83 83 83 82 79 76 74 72 71 71 70 69 68 68 68 68 68 67 64 61 56 50 45 43
42 42 42 42 43 44 44 45 46 47 48 49 51 51 51 51 51 49 48 49 53 55 56 58 59 60 60 60 60 60 60 60 60 59 58 58 58 57 57 57 57 56 55 54 53 54 54 55 56 57 58 59 59 60 63 65 69 72 75 78 80 82 82 82 80 77 73 71 70 70 69 68 67 67 67 67 67 67 65 62 57 51 46 42 39 38
43 44 44 44 45 45 45 45 46 46 47 49 51 52 52 52 52 51 51 52 54 57 58 59 60 60 61 60 60 60 60 59 59 59 58 58 58 57 57 57 56 56 55 54 54 54 55 55 56 57 58 60 61 63 65 68 71 74 76 79 80 81 80 78 74 71 69 69 68 68 67 66 66 66 66 66 65 63 59 54 48 44 40 37 35 35
45 45 46 45 45 46 46 45 45 46 48 50 52 52 53 52 52 53 53 54 56 59 60 61 61 61 61 61 61 61 60 59 59 59 59 58 58 58 57 56 56 55 54 54 54 54 55 56 57 58 60 61 63 65 67 70 72 75 77 78 79 78 75 72 69 68 67 67 66 65 65 65 65 65 65 64 61 56 50 45 42 39 37 34 33 34
46 45 45 45 45 45 46 46 47 48 49 51 53 53 53 53 53 54 55 56 58 61 62 63 63 63 63 62 62 62 61 60 59 60 60 60 59 58 57 56 55 55 54 54 54 55 56 57 58 59 61 63 65 67 69 71 73 75 77 77 76 74 70 67 66 65 65 64 63 63 64 64 65 65 63 60 54 48 44 41 38 35 33 32 33 35
45 45 46 46 46 46 47 46 47 48 50 51 53 54 54 53 53 55 57 59 60 62 64 64 65 64 64 63 63 63 63 62 61 60 60 60 59 58 56 55 55 54 54 54 55 55 56 57 59 60 62 65 66 68 69 71 73 75 76 75 73 69 66 64 64 63 62 62 62 62 63 64 64 63 59 52 46 42 40 38 34 32 31 32 34 35
46 47 47 48 48 48 48 47 47 48 50 51 53 54 54 54 54 56 58 59 61 63 65 66 66 66 65 64 64 64 64 63 62 61 60 59 58 56 55 54 54 54 54 54 55 56 57 58 59 62 64 66 67 68 69 71 73 74 74 73 69 66 64 63 62 62 61 60 61 62 62 63 62 58 52 46 42 40 38 35 32 31 31 32 33 33
48 48 48 49 50 50 50 49 49 49 50 52 54 55 55 55 55 56 56 58 61 63 65 66 66 66 66 65 65 64 64 63 62 62 60 59 57 55 54 53 53 53 54 54 55 56 56 58 60 63 65 66 67 68 69 71 73 73 72 70 66 63 62 62 61 60 59 59 60 61 62 62 58 51 45 42 40 38 36 34 33 32 31 31 31 32
50 49 49 51 51 51 52 52 52 52 52 53 55 56 56 56 56 56 56 58 60 62 64 65 66 66 66 66 65 65 64 63 62 62 61 59 57 55 54 53 53 53 54 54 55 55 56 59 62 64 65 65 66 67 69 70 71 71 70 66 63 61 61 60 59 58 58 59 59 60 61 58 52 45 42 41 40 38 35 34 33 32 31 30 30 30
50 50 50 52 52 52 53 53 53 53 53 54 55 56 56 56 56 56 56 57 59 61 62 64 65 66 67 67 66 66 65 64 63 62 61 60 58 56 54 54 54 54 54 54 55 56 57 60 63 64 64 64 65 67 68 69 70 69 66 62 60 59 59 58 57 57 57 57 58 59 58 53 46 42 41 40 39 38 35 34 33 32 30 29 29 30
51 50 50 51 51 52 52 52 52 52 52 53 54 55 56 56 56 56 56 57 59 60 62 63 64 66 67 67 67 67 66 65 64 63 62 60 59 57 56 55 55 55 55 55 56 57 59 61 63 63 63 64 65 67 68 69 68 67 63 60 58 58 58 56 55 55 55 56 57 58 55 48 42 40 40 40 39 38 35 33 32 31 29 28 28 29
51 50 50 51 51 51 51 52 51 51 52 53 54 55 56 57 57 57 56 57 58 60 61 63 64 65 66 67 67 67 67 66 64 64 63 61 60 58 57 56 56 56 56 56 57 58 60 62 63 62 63 64 65 67 68 68 67 65 61 58 57 57 56 55 53 53 54 55 56 57 52 44 39 39 39 38 39 38 36 33 32 30 29 28 27 28
52 51 50 51 51 52 52 52 52 52 52 53 54 55 57 57 57 57 57 57 58 60 61 62 63 64 65 66 67 67 67 67 66 65 63 62 60 59 58 57 57 57 57 57 58 59 61 62 62 62 62 63 65 66 67 67 66 63 59 56 56 56 55 53 52 51 52 53 55 55 50 42 38 37 37 37 37 37 36 34 33 32 30 28 27 26
52 52 51 51 52 52 53 53 52 52 52 54 54 55 57 57 57 58 58 58 58 59 61 62 63 63 64 65 66 67 67 67 67 66 65 63 61 60 59 58 58 57 57 58 59 60 61 61 61 61 62 63 64 65 66 66 65 62 57 55 56 55 54 52 51 50 51 52 53 53 49 41 37 36 35 35 35 36 36 34 33 33 32 30 28 27
52 52 52 52 52 52 53 53 53 53 52 53 54 55 57 58 58 58 59 59 59 59 60 62 62 63 64 64 65 66 67 67 67 67 66 64 62 61 60 59 59 58 58 58 59 60 60 61 61 61 61 62 64 64 65 65 64 60 56 54 55 54 52 50 49 49 49 50 51 52 48 41 37 35 34 32 32 35 37 37 35 33 33 32 31 30
52 53 53 52 52 53 53 54 54 54 54 54 54 55 57 58 59 59 60 59 59 59 60 61 62 63 64 64 65 65 66 67 67 67 67 66 64 62 61 60 59 59 59 59 59 60 60 60 60 60 61 62 63 64 64 65 63 59 55 54 54 54 52 49 47 47 47 47 49 50 47 41 36 34 33 31 30 31 35 39 40 38 35 34 33 32
52 52 53 53 53 53 53 54 55 55 55 55 55 56 57 59 60 60 61 60 60 60 60 61 62 63 63 63 64 65 66 66 67 67 67 67 66 64 63 61 60 59 59 59 59 59 60 60 60 60 61 62 63 63 64 64 62 58 54 53 54 53 51 49 46 45 45 45 46 48 47 42 36 33 32 31 30 29 30 34 38 41 39 38 36 33
Wind_Direction
288 287 286 286 285 285 285 285 285 285 285 285 284 284 284 283 282 282 282 281 280 280 280 280 280 280 280 280 280 279 279 279 278 278 278 278 278 278 277 277 277 277 277 278 278 278 278 277 277 277 277 276 276 276 276 276 276 276 276 276 276 276 276 276 276 276 276 276 275 275 275 274 274 274 273 273 272 272 272 272 272 272 272 272 273 273
290 289 288 287 287 287 286 286 286 286 285 285 285 284 284 283 283 282 282 281 281 280 280 280 279 279 280 279 279 279 278 278 278 278 278 278 277 277 277 277 277 277 277 277 277 276 276 276 276 276 276 275 275 275 275 275 275 275 275 275 275 275 275 275 275 275 275 275 275 275 274 274 274 273 272 272 271 271 271 271 271 272 272 273 273 273
291 290 290 289 288 288 287 287 287 286 286 285 285 284 284 283 283 282 282 281 281 280 280 280 280 279 279 278 278 278 278 278 279 278 278 278 277 277 277 277 277 277 276 276 276 276 276 276 276 276 276 275 275 275 275 275 275 275 275 275 275 275 275 275 275 275 275 275 275 275 275 274 274 273 272 271 271 271 271 271 272 272 272 273 273 273
293 292 292 291 290 289 289 288 287 287 286 286 285 284 284 283 282 282 282 281 281 280 281 281 281 279 279 279 279 279 279 279 279 279 279 278 278 277 277 277 277 277 277 277 277 277 276 276 276 276 275 275 275 275 275 275 274 274 274 274 274 274 274 274 274 275 275 275 275 275 274 274 274 273 272 271 271 271 271 271 271 272 272 272 272 273
295 294 293 292 292 291 290 289 288 288 287 286 285 284 284 283 282 282 282 282 281 281 281 282 281 279 279 280 280 281 281 281 280 280 279 279 278 278 278 278 278 278 278 278 278 277 277 276 276 276 275 275 274 274 274 273 273 273 273 273 273 273 273 273 274 274 274 274 274 274 274 274 273 273 272 271 271 270 270 270 270 270 270 270 271 272
296 295 294 293 292 291 290 290 289 288 287 287 285 285 284 284 283 283 283 282 282 281 282 282 282 281 281 281 282 282 282 281 281 280 280 280 280 279 279 279 279 279 279 279 278 278 277 277 276 276 275 275 274 273 273 272 272 272 272 272 272 273 273 273 273 273 273 273 273 273 273 272 272 272 271 271 270 270 270 269 269 269 269 269 270 271
296 295 294 293 292 292 291 290 290 289 288 287 286 285 285 284 284 283 283 283 282 282 282 281 282 283 282 282 282 282 282 281 281 282 282 282 282 281 281 281 280 280 279 278 278 277 277 277 276 276 276 275 275 274 274 273 273 273 273 273 273 273 273 274 274 274 274 274 273 273 272 271 270 270 269 269 269 269 268 268 268 268 269 269 270 271
296 295 294 294 293 292 292 291 290 289 288 287 286 286 285 284 283 283 283 282 282 282 282 281 283 284 283 282 282 282 282 282 283 283 283 283 283 283 282 282 281 280 279 279 278 278 277 277 277 276 276 276 276 275 275 275 275 275 275 275 275 275 274 274 274 274 274 274 273 273 272 271 270 268 267 267 267 267 267 267 268 268 269 270 270 271
296 296 295 295 294 293 292 291 290 289 288 287 286 285 285 284 284 283 283 283 283 282 282 283 284 284 283 282 283 284 284 284 285 285 284 284 283 283 282 281 281 280 280 280 279 278 278 278 278 278 277 277 277 277 277 277 277 277 277 276 276 275 275 275 274 274 274 273 272 271 270 269 269 268 267 267 267 267 268 268 269 269 270 270 270 271
298 297 297 296 295 293 292 291 290 289 288 288 287 287 286 285 285 284 284 284 284 283 284 286 285 285 284 284 285 286 286 287 286 286 285 284 283 283 282 282 282 281 281 280 280 280 280 280 280 279 279 279 279 278 278 278 278 277 277 276 276 275 275 274 274 273 272 271 270 269 269 268 268 268 268 269 269 269 269 269 270 270 270 271 271 271
300 299 299 298 297 296 295 294 293 293 292 292 291 290 289 288 287 287 287 287 286 286 287 288 287 286 286 286 287 288 288 287 287 286 285 284 284 284 283 283 283 283 283 283 282 282 282 281 281 280 280 280 279 278 278 277 276 276 275 274 274 273 273 272 272 272 271 271 271 270 270 270 270 270 270 271 271 271 271 271 271 271 271 271 271 271
302 301 301 300 300 299 298 297 297 296 296 295 294 293 292 292 290 289 289 289 288 288 288 288 287 287 286 287 288 288 288 287 286 286 285 285 285 285 285 285 285 284 284 284 283 282 281 280 280 279 279 278 278 277 277 276 275 274 274 274 274 274 274 274 274 274 274 274 274 274 274 274 273 273 273 273 273 273 273 273 273 273 273 273 273 273
304 304 303 302 301 301 300 300 299 299 298 297 296 296 295 294 293 292 292 291 290 290 289 288 288 287 287 289 290 289 288 288 287 287 287 287 286 286 286 285 285 284 283 282 281 280 280 279 279 278 278 278 277 277 277 277 277 277 277 277 277 277 278 278 278 278 278 278 278 278 277 277 277 277 277 276 276 276 276 275 275 275 275 275 275 274
310 308 307 305 304 303 303 302 301 300 300 299 298 298 297 296 295 294 294 293 292 292 291 291 290 290 290 291 291 290 289 288 288 288 288 287 287 286 285 285 284 283 282 282 281 281 281 281 280 280 280 280 280 280 280 280 280 280 280 280 280 280 279 279 279 279 279 279 279 279 279 279 279 279 278 278 278 278 277 277 277 276 276 276 276 275
315 313 311 309 308 307 307 305 304 303 302 301 300 299 298 297 297 296 295 294 293 292 292 292 292 292 292 291 291 290 290 290 289 289 288 287 286 285 284 284 284 283 283 283 283 283 283 283 283 283 283 283 283 283 283 283 283 283 282 282 282 281 281 281 281 281 280 280 280 280 280 280 280 280 279 279 279 279 279 278 278 278 277 277 277 276
318 316 314 312 311 310 309 308 306 305 304 302 301 300 299 298 297 296 295 295 294 293 293 293 293 293 293 292 292 291 291 290 289 288 287 287 287 287 287 287 287 287 287 287 287 287 287 286 286 286 286 286 286 286 286 286 285 285 285 285 284 284 284 284 283 283 283 282 282 282 282 282 281 281 281 281 281 280 280 280 279 279 279 278 278 277
318 318 316 314 314 313 311 309 308 306 305 304 302 301 300 299 298 297 297 296 296 295 295 295 295 295 294 293 292 292 291 290 290 289 290 291 291 292 292 292 291 291 291 290 290 290 290 289 289 289 289 289 289 288 288 288 288 288 287 287 287 286 286 286 286 285 285 284 284 284 284 284 284 283 283 283 282 282 282 281 281 281 280 280 279 279
320 320 318 316 316 314 312 311 310 308 307 306 306 304 303 302 301 301 300 299 298 297 296 296 296 297 297 296 295 295 295 294 295 295 295 295 295 295 295 294 294 293 292 292 292 292 292 291 291 291 291 291 290 290 290 290 289 289 289 288 288 287 287 287 287 286 286 286 286 286 286 286 285 285 285 285 284 284 283 283 283 282 282 281 281 280
322 322 321 319 318 318 317 317 316 314 313 312 311 310 309 308 307 308 307 306 304 303 301 300 300 301 301 301 301 300 299 299 299 298 298 297 297 296 296 295 294 294 293 293 293 293 293 292 292 292 292 291 291 291 290 290 290 289 289 289 289 288 288 288 288 288 288 288 288 288 288 287 287 287 287 286 286 285 285 284 284 283 283 283 282 282
326 326 326 326 325 325 324 323 322 321 319 318 317 317 316 315 314 314 314 314 312 310 308 306 305 305 305 305 304 303 303 302 301 301 300 299 299 298 297 296 296 295 295 295 295 295 294 294 293 293 292 292 292 291 291 291 290 290 290 290 290 290 290 290 290 290 290 290 290 290 289 289 289 289 288 288 287 287 286 285 285 284 283 283 282 282
331 331 332 333 332 330 329 327 325 325 324 322 321 320 319 319 319 318 317 317 315 314 312 310 309 308 308 308 307 306 305 304 303 303 302 301 301 300 299 298 297 297 297 296 296 295 295 294 294 293 293 292 292 292 292 292 292 292 291 291 291 291 291 291 291 291 291 292 292 291 291 291 291 290 289 289 288 287 286 286 285 284 284 283 283 282
338 338 337 336 336 334 334 333 331 330 330 328 326 325 324 324 323 321 319 318 317 315 314 313 311 310 309 309 308 307 306 305 305 304 303 302 301 300 299 299 298 298 297 297 296 295 295 294 294 294 294 294 293 293 293 293 293 292 292 292 292 293 293 293 293 293 293 293 293 293 292 292 291 290 289 288 288 287 286 286 285 285 284 284 284 283
345 346 346 344 343 343 341 340 338 337 336 335 334 332 331 329 327 325 322 321 319 317 315 314 312 311 311 310 309 308 307 306 305 304 303 302 301 301 300 299 299 298 298 297 297 296 296 296 295 295 295 294 294 294 294 294 294 294 294 294 294 295 295 295 295 295 295 294 294 293 292 292 291 290 289 288 288 287 287 286 286 286 285 285 285 285
1 2 1 357 354 352 349 347 344 341 340 339 336 334 331 329 327 325 323 321 320 318 317 316 314 313 312 311 310 309 307 306 305 304 304 303 302 302 301 300 299 299 299 298 298 298 298 297 296 296 295 295 295 295 295 296 296 296 296 296 296 296 296 296 296 295 295 294 294 293 292 292 291 290 289 289 288 288 288 288 287 287 287 287 287 286
14 13 11 8 5 2 359 355 351 345 342 340 337 334 331 329 327 325 323 322 321 319 318 317 315 314 313 312 310 309 308 307 306 306 305 304 303 303 302 301 301 301 300 300 299 299 298 297 297 297 297 297 297 297 297 297 298 298 297 297 297 297 297 296 296 295 295 294 294 293 293 292 291 290 290 289 289 289 289 289 289 289 289 288 288 288
16 13 11 8 6 3 360 356 352 347 343 340 338 336 334 330 327 325 323 322 321 320 319 317 315 314 313 312 311 311 310 309 308 307 306 305 305 304 303 303 302 302 301 300 299 299 299 299 299 299 299 299 299 299 299 299 299 299 299 298 298 297 297 297 296 296 296 295 295 294 293 292 292 291 291 291 291 291 291 291 291 290 290 290 290 289
13 11 9 6 3 360 357 354 350 346 343 340 339 337 335 332 329 326 324 323 321 319 317 316 315 314 314 314 313 312 310 309 308 308 307 306 306 305 304 303 302 302 301 301 301 301 301 301 301 300 300 300 300 300 300 300 299 299 299 299 298 298 298 298 297 297 297 296 296 295 294 294 293 293 293 293 293 293 292 292 292 292 291 291 291 290
9 7 5 3 0 358 355 352 349 346 343 341 339 338 336 334 331 328 326 324 322 320 318 318 317 317 316 315 313 312 311 310 309 308 307 306 306 305 304 303 303 303 303 303 303 302 302 302 301 301 301 301 301 301 301 301 301 300 300 300 300 299 299 299 299 298 298 297 297 296 296 296 295 295 295 294 294 294 294 294 293 293 292 292 291 291
4 2 1 359 357 355 353 351 349 346 343 341 340 340 338 337 334 332 330 328 326 324 322 322 321 319 317 316 315 314 313 312 311 310 309 308 307 307 306 306 306 305 305 304 304 303 303 303 303 303 303 303 303 303 303 303 303 302 302 302 301 301 301 301 300 300 300 299 299 298 298 298 297 297 297 297 296 296 296 295 295 294 294 293 292 292
360 358 357 355 353 352 351 350 348 345 343 342 341 340 340 339 338 336 335 333 330 328 326 325 324 322 321 320 319 318 316 315 314 313 312 311 310 310 309 309 308 307 307 306 306 306 305 305 305 305 305 306 306 306 306 305 305 305 304 304 304 303 303 303 303 302 302 301 301 301 301 301 300 300 300 299 299 298 297 297 296 296 295 295 294 294
357 355 354 352 350 349 349 348 346 345 343 342 341 341 340 340 340 340 339 336 333 331 330 328 327 326 325 324 322 320 319 317 316 315 314 313 313 312 311 310 310 309 309 309 309 309 308 308 308 308 309 309 309 308 308 307 307 306 306 306 306 306 306 305 305 305 305 304 304 304 304 303 303 302 302 301 301 300 299 299 298 298 297 297 297 296
355 353 351 350 348 346 346 346 345 344 343 343 342 341 341 340 341 342 341 338 335 334 333 331 330 329 327 325 324 322 320 319 318 317 317 316 315 314 314 313 313 313 313 312 312 311 311 311 311 311 311 311 310 309 309 308 308 308 308 309 309 309 309 308 308 308 308 307 307 307 306 305 305 304 304 303 302 302 301 301 300 300 300 299 299 299
356 353 350 348 346 345 345 345 344 343 343 343 343 342 342 341 341 343 342 339 336 335 334 333 331 329 328 326 324 323 322 321 321 320 319 319 318 318 318 318 317 317 316 315 314 313 313 313 313 313 312 312 311 311 311 311 311 311 311 312 312 312 312 311 311 311 310 310 309 308 308 307 307 306 305 305 304 304 303 303 303 302 302 302 301 300
357 353 350 348 346 344 344 343 342 342 343 343 343 343 342 342 341 342 343 340 337 336 335 333 332 330 328 327 326 325 325 324 323 322 322 322 321 321 321 321 320 319 317 316 316 315 315 315 314 314 314 314 314 314 313 314 314 314 314 315 315 315 314 314 313 313 312 311 311 310 310 309 308 308 307 307 307 306 306 305 305 305 304 304 303 301
358 355 351 348 346 345 343 343 343 344 344 343 344 343 343 342 341 342 344 341 338 337 336 334 333 332 330 330 328 327 326 325 325 324 324 323 323 322 322 322 321 320 319 318 317 316 316 315 315 316 316 316 316 316 316 316 316 316 317 317 317 317 316 316 315 314 314 313 313 312 311 311 310 310 310 310 309 309 308 308 307 307 306 306 305 304
358 355 353 350 347 345 344 344 344 344 343 343 343 343 343 343 342 342 345 343 340 339 339 337 336 334 333 332 330 328 327 326 326 325 325 324 323 323 323 322 322 322 320 319 318 317 317 317 317 317 318 318 318 318 317 317 317 318 318 319 319 318 317 317 316 316 315 315 314 314 313 312 312 312 312 312 311 311 310 310 309 309 309 309 308 306
357 355 353 351 349 347 345 344 343 343 342 343 344 344 344 344 343 343 345 345 343 343 342 340 339 337 335 334 332 330 329 328 327 326 325 324 323 323 323 323 323 322 321 320 319 319 318 318 317 318 319 319 320 319 319 319 319 320 320 320 320 319 319 319 318 317 317 316 316 315 315 315 315 315 314 314 313 312 312 312 312 312 312 312 311 308
357 355 353 351 349 347 344 344 343 343 344 345 345 345 345 345 344 344 346 347 346 345 344 343 342 340 338 336 334 332 331 330 328 326 326 325 324 324 324 324 323 322 322 321 321 320 319 318 318 319 320 321 321 321 321 321 321 321 322 321 321 321 321 320 319 319 318 318 317 317 317 317 317 317 316 316 315 314 314 315 316 315 315 314 313 312
355 354 352 351 348 346 345 344 344 344 345 346 345 345 345 345 345 345 347 348 348 348 347 346 344 342 340 339 337 335 333 332 331 328 327 326 326 325 325 324 324 323 323 322 322 321 320 320 320 320 321 322 322 322 322 323 323 323 323 323 323 323 322 321 320 320 320 319 319 319 319 319 319 319 318 317 317 317 317 318 318 317 317 318 317 315
352 351 351 351 349 348 347 346 345 345 346 346 345 345 346 346 346 346 347 349 350 350 349 348 346 345 343 341 339 337 336 335 334 332 330 329 328 327 326 325 325 324 324 323 323 322 322 322 321 321 322 323 324 324 324 324 324 324 325 325 325 324 323 322 322 322 322 322 322 322 321 321 321 321 320 319 319 319 320 320 321 320 322 323 320 317
351 350 350 351 350 349 348 347 346 346 346 346 346 346 347 347 347 348 348 348 350 350 350 349 348 347 346 343 342 340 338 337 337 335 333 332 330 329 328 327 326 325 325 324 324 324 323 323 323 323 324 325 325 325 325 325 326 326 327 327 326 325 325 324 324 324 324 324 324 324 324 323 323 322 321 321 322 322 323 324 324 325 326 325 321 319
351 350 350 350 350 349 348 348 348 347 348 347 347 347 347 347 347 348 348 348 349 350 351 350 350 349 347 346 344 342 341 340 339 338 337 335 333 331 329 328 327 326 326 325 325 325 324 324 324 325 326 326 326 326 326 327 327 328 328 328 327 327 326 326 326 326 326 327 327 326 326 326 325 324 324 324 324 324 326 327 327 327 327 326 324 323
350 349 349 349 350 349 349 348 348 349 349 348 348 348 348 347 347 347 347 348 349 350 351 351 350 350 349 348 346 344 343 342 341 341 340 338 336 334 332 330 329 328 327 327 326 326 326 326 326 327 327 327 327 327 328 329 330 330 330 329 329 328 328 328 328 328 328 329 329 329 328 328 327 326 326 326 325 326 327 328 327 327 328 328 329 326
350 349 349 349 349 349 349 348 348 348 348 348 347 347 347 347 347 347 347 347 348 348 349 350 351 351 350 349 348 346 345 344 343 343 342 341 339 337 334 332 330 330 329 329 328 328 328 328 328 328 329 329 329 330 330 331 332 332 332 331 330 330 330 329 329 329 330 330 331 331 331 330 328 328 327 327 327 327 328 329 328 328 330 332 332 329
349 349 349 348 349 349 348 348 347 346 347 347 347 347 347 347 347 347 346 346 346 347 348 349 350 351 351 351 350 348 347 345 344 344 343 343 341 339 336 334 333 332 331 330 330 330 330 330 330 330 330 331 331 332 333 333 334 334 333 332 332 331 331 331 330 330 331 333 334 334 333 332 330 329 329 328 327 326 327 328 328 329 332 336 335 332
349 349 348 348 348 348 348 347 347 347 346 347 347 347 348 347 347 346 346 346 346 346 347 348 349 350 351 351 351 350 348 347 346 345 344 344 343 341 338 336 335 334 333 332 332 332 332 331 332 332 332 333 333 334 334 335 336 335 335 334 334 333 333 332 332 332 333 335 336 336 335 333 332 331 330 328 326 325 327 329 330 331 335 338 339 336
348 348 348 347 347 348 348 347 347 347 346 347 348 348 348 348 347 346 346 345 345 346 346 347 348 349 350 351 351 351 350 349 348 346 345 344 343 341 339 337 336 335 334 334 334 333 333 333 333 334 334 334 334 335 336 337 337 337 336 336 335 335 334 333 333 333 335 337 338 339 337 334 333 332 331 328 326 325 327 331 333 333 335 339 342 339
347 347 348 347 347 347 347 347 347 347 347 347 347 347 348 348 347 347 346 346 346 346 346 347 347 348 349 350 351 351 351 351 350 349 347 346 344 342 340 339 338 337 336 336 336 335 335 335 335 335 335 336 336 337 337 338 338 338 338 337 337 337 336 334 333 334 336 338 340 341 339 335 334 333 332 329 328 328 329 332 334 335 335 338 342 342
346 346 347 347 347 346 346 347 347 348 347 347 347 347 348 348 348 347 346 346 346 346 346 347 347 347 348 350 351 351 351 352 351 351 350 348 346 343 342 340 339 339 338 338 337 337 336 336 336 336 336 337 337 338 339 339 340 340 339 339 339 338 337 335 334 335 337 340 342 343 341 337 334 334 332 331 332 333 332 333 335 337 338 339 341 344
345 345 346 346 346 346 346 346 347 347 348 347 347 347 348 348 348 347 347 347 346 346 347 347 347 347 348 349 350 351 352 352 353 353 353 351 349 346 343 342 341 340 339 340 339 339 338 338 338 338 338 338 339 340 341 341 341 341 341 340 340 339 338 337 336 336 337 340 343 344 343 339 335 334 333 333 335 338 337 335 335 337 339 340 342 346
344 344 345 345 345 345 345 345 346 347 348 347 347 347 348 348 348 348 347 347 347 347 347 347 347 347 348 349 350 351 352 352 353 354 355 354 353 350 346 344 343 342 341 341 341 340 340 340 339 339 339 340 340 341 342 342 342 342 342 342 341 340 339 338 337 337 338 340 342 345 345 342 338 335 335 335 336 339 340 339 337 337 338 340 341 345